Home > Weather > Bălți > Past weeks

Flag for Moldova Past Weather in Bălți, Moldova — Yesterday and Last 2 Weeks

Now
88 °F

Pleasantly warm.


Feels Like: 87 °F
Forecast: 71 / 92 °F
Wind: 9 mph from Southeast

Location: Baltsi-Leadoveni - The North of Moldova

Current Time: Jul 27, 2016 at 6:36:12 PM

Latest Report: Jul 27, 2016 at 6:00 PM


Visibility: N/A

Pressure: 29.98 "Hg

Humidity: 35%

Dew Point: 57 °F

Location of BălțiLocation

Past Weather in Bălți — Graph

°F

Bălți Temperature Yesterday

Maximum temperature yesterday: 88 °F (at 2:30 PM)
Minimum temperature yesterday: 68 °F (at 4:30 AM)
Average temperature yesterday: 78 °F

High & Low Weather Summary for the Past Weeks

 TemperatureHumidityPressure
High93 °F (Jul 17, 3:30 PM)94% (Jul 18, 3:00 AM)30.07 "Hg (Jul 18, 3:00 AM)
Low55 °F (Jul 21, 6:00 AM)24% (Jul 22, 3:30 PM)29.71 "Hg (Jul 17, 7:00 PM)
Average73 °F58%29.94 "Hg
* Reported Jul 12 5:00 PM — Jul 27 5:30 PM, Bălți, Weather by CustomWeather, © 2016

Note: Actual official high and low records may vary slightly from our data, if they occured in-between our weather recording intervals... More about our weather records

Advertising

Bălți Weather History for the Previous 24 Hours

Scroll right to see more
 ConditionsComfort  
Time TempWeatherWind HumidityBarometerVisibility
5:30 PM
Wed, Jul 27
88 °FPleasantly warm.8 mph33%30.01 "HgN/A
5:00 PM86 °FPleasantly warm.6 mph35%30.01 "HgN/A
4:30 PM86 °FPleasantly warm.12 mph38%30.01 "HgN/A
4:00 PM86 °FPleasantly warm.12 mph38%30.01 "HgN/A
3:30 PM88 °FPleasantly warm.3 mph33%30.01 "HgN/A
3:00 PM86 °FPleasantly warm.9 mph38%30.04 "HgN/A
2:30 PM86 °FWarm.8 mph40%30.04 "HgN/A
2:00 PM88 °FPleasantly warm.7 mph38%30.04 "HgN/A
1:00 PM86 °FWarm.6 mph40%30.04 "HgN/A
12:30 PM86 °FWarm.7 mph40%30.07 "HgN/A
12:00 PM86 °FWarm.5 mph40%30.07 "HgN/A
11:30 AM86 °FWarm.6 mph40%30.07 "HgN/A
11:00 AM86 °FWarm.5 mph43%30.07 "HgN/A
10:30 AM84 °FWarm.3 mph45%30.07 "HgN/A
10:00 AM82 °FWarm.5 mph51%30.07 "HgN/A
9:30 AM81 °FWarm.5 mph54%30.07 "HgN/A
9:00 AM77 °FWarm.5 mph57%30.07 "HgN/A
8:30 AM75 °FMild.5 mph61%30.07 "HgN/A
8:00 AM73 °FMild.5 mph65%30.07 "HgN/A
7:30 AM72 °FMild.6 mph65%30.07 "HgN/A
7:00 AM70 °FMild.6 mph69%30.04 "HgN/A
6:30 AM68 °FMild.6 mph73%30.04 "HgN/A
6:00 AM68 °FMild.6 mph73%30.04 "HgN/A
5:30 AM70 °FMild.6 mph69%30.04 "HgN/A
5:00 AM70 °FMild.5 mph64%30.04 "HgN/A
4:30 AM70 °FMild.5 mph64%30.04 "HgN/A
4:00 AM70 °FMild.2 mph64%30.04 "HgN/A
3:30 AM72 °FMild.No wind61%30.04 "HgN/A
3:00 AM70 °FMild.6 mph64%30.04 "HgN/A
2:00 AM72 °FMild.3 mph65%30.04 "HgN/A
1:30 AM73 °FMild.5 mph61%30.04 "HgN/A
1:00 AM73 °FMild.2 mph61%30.04 "HgN/A
12:30 AM73 °FMild.6 mph61%30.04 "HgN/A
12:00 AM73 °FMild.6 mph61%30.04 "HgN/A
11:30 PM
Tue, Jul 26
73 °FMild.7 mph61%30.04 "HgN/A
11:00 PM75 °FMild.7 mph54%30.04 "HgN/A
10:30 PM75 °FMild.7 mph54%30.04 "HgN/A
10:00 PM75 °FMild.7 mph54%30.04 "HgN/A
9:30 PM77 °FWarm.7 mph54%30.04 "HgN/A
9:00 PM77 °FWarm.7 mph51%30.04 "HgN/A
8:00 PM81 °FWarm.7 mph45%30.01 "HgN/A
7:30 PM82 °FPleasantly warm.8 mph40%30.01 "HgN/A
7:00 PM84 °FPleasantly warm.9 mph37%30.01 "HgN/A
6:30 PM86 °FPleasantly warm.9 mph35%29.98 "HgN/A
6:00 PM86 °FPleasantly warm.10 mph33%29.98 "HgN/A
Weather by CustomWeather, © 2016

See weather overviewHow to use our weather pages